This is the latest recevied weather packets stored in our database for station/object DO0SOB-11. If no packets are shown the sender has not sent any weather packets the latest 10 day(s).
| Time | Temp. | Humidity | Pressure | Rain* | Wind** | Luminosity | Snow |
|---|---|---|---|---|---|---|---|
| 1787625142 | 9.44° C | 100% | 977.1 hPa | - | - | - | - |
| 1787624122 | 10.56° C | 100% | 977 hPa | - | - | - | - |
| 1787622082 | 10.56° C | 100% | 977.5 hPa | - | - | - | - |
| 1787621062 | 10.56° C | 100% | 977.6 hPa | - | - | - | - |
| 1787620042 | 10.56° C | 100% | 977.5 hPa | - | - | - | - |
| 1787619022 | 10.56° C | 100% | 977.5 hPa | - | - | - | - |
| 1787618002 | 10.56° C | 100% | 977.7 hPa | - | - | - | - |
| 1787616982 | 11.11° C | 100% | 977.8 hPa | - | - | - | - |
| 1787615961 | 11.11° C | 100% | 977.9 hPa | - | - | - | - |
| 1787614941 | 11.67° C | 100% | 978.3 hPa | - | - | - | - |
| 1787613921 | 12.22° C | 100% | 978.4 hPa | - | - | - | - |
| 1787612901 | 12.22° C | 100% | 978.5 hPa | - | - | - | - |
| 1787611881 | 12.22° C | 100% | 978.7 hPa | - | - | - | - |
| 1787610861 | 12.22° C | 100% | 978.6 hPa | - | - | - | - |
| 1787609841 | 12.22° C | 100% | 978.9 hPa | - | - | - | - |
| 1787608821 | 12.78° C | 100% | 979 hPa | - | - | - | - |
| 1787607801 | 12.78° C | 100% | 979.2 hPa | - | - | - | - |
| 1787606781 | 12.78° C | 100% | 979.4 hPa | - | - | - | - |
| 1787605761 | 13.33° C | 100% | 979.4 hPa | - | - | - | - |
| 1787604740 | 13.33° C | 100% | 979.7 hPa | - | - | - | - |
| 1787603720 | 13.33° C | 100% | 979.8 hPa | - | - | - | - |
| 1787602700 | 13.89° C | 100% | 980 hPa | - | - | - | - |
| 1787601680 | 14.44° C | 100% | 979.9 hPa | - | - | - | - |
| 1787600660 | 14.44° C | 100% | 979.9 hPa | - | - | - | - |
| 1787599640 | 15° C | 100% | 980 hPa | - | - | - | - |
* Rain since midnight (hover to see other rain measurements)
** Current wind speed in m/s (hover to see current wind gust speed)